Philadelphia, PA

7:08 AM EST on February 24, 2017 (GMT -0500)
Northeast Philadelphia

Weather History for KPNE - May, 2012

Change the Weather History Date:

Saturday, May 12, 2012

  Actual Average Record
Temperature  
Mean Temperature 62 °F -  
Max Temperature 79 °F 69 °F 87 °F (2004)
Min Temperature 46 °F 48 °F 46 °F (2012)
Degree Days  
Heating Degree Days 3    
Growing Degree Days 12 (Base 50)    
Moisture  
Dew Point 40 °F    
Average Humidity 43    
Maximum Humidity 74    
Minimum Humidity 27    
Precipitation  
Precipitation 0.00 in - - ()
Sea Level Pressure  
Sea Level Pressure 30.21 in    
Wind  
Wind Speed 4 mph (West)    
Max Wind Speed 14 mph    
Max Gust Speed 17 mph    
Visibility 10 miles    
Events      
Averages and records for this station are not official NWS values.
T = Trace of Precipitation, MM = Missing Value Source: NWS Daily Summary

Daily Weather History Graph

Daily Weather History Graph

Search for Another Location

Airport or City:

Trip Planner

Search our weather history database for the weather conditions in past years. The results will help you decide how hot, cold, wet, or windy it might be!

Date:

Astronomy

May. 12, 2012 Rise Set
Actual Time 5:47 AM EDT 8:06 PM EDT
Civil Twilight 5:16 AM EDT 8:36 PM EDT
Nautical Twilight 4:39 AM EDT 9:14 PM EDT
Astronomical Twilight 3:57 AM EDT 9:56 PM EDT
Moon 1:19 AM EDT (5/12) 12:23 PM EDT (5/12)
Length of Visible Light 15h 20m
Length of Day
14h 19m
Waning Gibbous, 53% of the Moon is Illuminated
May 12
Waning Gibbous
May 12
Last Quarter
May 20
New
May 28
First Quarter
Jun 4
Full

Hourly Weather History & Observations

Time (EDT) Temp. Dew Point Humidity Pressure Visibility Wind Dir Wind Speed Gust Speed Precip Events Conditions
12:54 AM 54.0 °F 37.0 °F 53% 30.17 in 10.0 mi Calm Calm - N/A   Clear
1:54 AM 53.1 °F 37.0 °F 55% 30.18 in 10.0 mi Calm Calm - N/A   Clear
2:54 AM 50.0 °F 39.0 °F 66% 30.18 in 10.0 mi Calm Calm - N/A   Clear
3:54 AM 48.9 °F 37.9 °F 66% 30.19 in 10.0 mi Calm Calm - N/A   Clear
4:54 AM 46.9 °F 39.0 °F 74% 30.20 in 10.0 mi Calm Calm - N/A   Clear
5:54 AM 48.0 °F 39.0 °F 71% 30.22 in 10.0 mi WSW 4.6 mph - N/A   Clear
6:54 AM 52.0 °F 42.1 °F 69% 30.25 in 10.0 mi West 3.5 mph - N/A   Clear
7:54 AM 61.0 °F 39.9 °F 46% 30.26 in 10.0 mi West 3.5 mph - N/A   Clear
8:54 AM 64.9 °F 37.9 °F 37% 30.28 in 10.0 mi WNW 5.8 mph - N/A   Clear
9:54 AM 68.0 °F 39.9 °F 36% 30.26 in 10.0 mi NNW 6.9 mph - N/A   Clear
10:54 AM 71.1 °F 41.0 °F 34% 30.26 in 10.0 mi Variable 6.9 mph - N/A   Clear
11:54 AM 73.0 °F 41.0 °F 31% 30.26 in 10.0 mi West 9.2 mph - N/A   Clear
12:54 PM 73.9 °F 42.1 °F 32% 30.24 in 10.0 mi WNW 8.1 mph 16.1 mph N/A   Clear
1:54 PM 75.9 °F 41.0 °F 29% 30.23 in 10.0 mi NW 13.8 mph 17.3 mph N/A   Clear
2:54 PM 78.1 °F 41.0 °F 27% 30.22 in 10.0 mi WNW 8.1 mph - N/A   Clear
3:54 PM 77.0 °F 41.0 °F 28% 30.20 in 10.0 mi West 8.1 mph - N/A   Clear
4:54 PM 78.1 °F 42.1 °F 28% 30.18 in 10.0 mi NW 6.9 mph - N/A   Clear
5:54 PM 75.9 °F 42.1 °F 30% 30.18 in 10.0 mi WSW 11.5 mph - N/A   Clear
6:54 PM 75.9 °F 41.0 °F 29% 30.17 in 10.0 mi WSW 8.1 mph - N/A   Clear
7:54 PM 72.0 °F 41.0 °F 33% 30.18 in 10.0 mi SW 5.8 mph - N/A   Clear
8:54 PM 72.0 °F 42.1 °F 34% 30.19 in 10.0 mi WSW 12.7 mph - N/A   Clear
9:54 PM 69.1 °F 41.0 °F 36% 30.20 in 10.0 mi WSW 6.9 mph - N/A   Clear
10:54 PM 64.9 °F 42.1 °F 43% 30.21 in 10.0 mi WSW 5.8 mph - N/A   Clear
11:54 PM 66.0 °F 42.1 °F 42% 30.22 in 10.0 mi WSW 8.1 mph - N/A   Clear